Content
SEND FEEDBACK

Daily
Averages
Monthly
Summary
Turkey

KILIS, TURKEY


Home > Middle East > Turkey
Elevation: 2093 feet     Latitude: 36 06N     Longitude: 037 24E

WEATHER
 
SELECT A DAY
Number of Records: 216,145;   Date Range: 7/1/96 - 12/19/14
 
SHARE

PRINT THIS DATA

[ ← Previous Day ]
WEATHER ALMANAC - MARCH 6, 2013
[ Next Day → ]
[ °C ]   °F
Weather ElementAverageHighLow
Temperature40.3 °F50 °F (2:20 pm)32 °F (4:50 am)
Dewpoint8.7 °F19.4 °F (11:50 pm)3.2 °F (12:50 pm)
Humidity27.5 %60 % (11:50 pm)7 % (2:00 pm)
Barometer30.17 in30.25 in (8:00 am)30.06 in (12:50 am)
Wind Speed13.7 mph27.6 mph (1:50 am)
Wind Gust41.4 mph (1:50 am)
Weather ElementAverage
Visibility6 mi
Wind DirectionW (269.4 °)

Weather ElementTotal
Precipitation---
Heating Degree Days24 (Base 65)
Averaged from 51 records on March 6, 2013
WEATHER CONDITIONS BREAKOUT
WIND DIRECTION BREAKOUT
WEATHER BY HOUR - MARCH 6, 2013
[ °C ]   °F
Local TimeTemperatureDewpointHumidityBarometerVisibilityWind DirectionWind SpeedGust SpeedPrecipitationEventsConditions
12:50 AM35.6 °F6.8 °F30 %30.06 inNorth (350°)18.4 mph39.1 mphClear
1:20 AM33.8 °F6.8 °F32 %30.09 inNorth (350°)25.3 mph38.0 mphClear
1:50 AM33.8 °F5.0 °F30 %30.09 inNNW (340°)27.6 mph41.4 mphClear
2:00 AM34.0 °F4.0 °F15 %30.13 in6.0 miNNW (340°)27.6 mph
2:20 AM33.8 °F6.8 °F32 %30.12 inNorth (350°)16.1 mphClear
2:50 AM33.8 °F6.8 °F32 %30.12 inNorth (350°)13.8 mph27.6 mphClear
3:20 AM33.8 °F6.8 °F32 %30.12 inNorth (350°)16.1 mphClear
3:50 AM33.8 °F5.0 °F30 %30.12 inNorth (360°)16.1 mph28.8 mphClear
4:20 AM33.8 °F5.0 °F30 %30.15 inNNW (340°)16.1 mphClear
4:50 AM32.0 °F6.8 °F35 %30.15 inNorth (350°)15.0 mphClear
5:20 AM32.0 °F6.8 °F35 %30.15 inNNW (340°)18.4 mphClear
5:50 AM32.0 °F6.8 °F35 %30.15 inNNW (340°)18.4 mph29.9 mphClear
6:20 AM32.0 °F8.6 °F38 %30.15 inNorth (350°)16.1 mphClear
6:50 AM33.8 °F8.6 °F35 %30.15 inNorth (350°)16.1 mphClear
7:20 AM33.8 °F8.6 °F35 %30.15 inNNW (340°)20.7 mphClear
7:50 AM35.6 °F6.8 °F30 %30.18 inNorth (350°)16.1 mphClear
8:00 AM36.0 °F4.0 °F13 %30.25 in6.0 miNorth (350°)16.1 mph
8:20 AM37.4 °F6.8 °F28 %30.18 inNorth (350°)21.9 mph33.4 mphClear
8:50 AM37.4 °F6.8 °F28 %30.18 inNorth (350°)25.3 mph36.8 mphClear
9:20 AM39.2 °F6.8 °F26 %30.18 inNorth (350°)24.2 mph35.7 mphClear
9:50 AM41.0 °F6.8 °F24 %30.18 inNorth (350°)23.0 mph35.7 mphClear
10:20 AM41.0 °F8.6 °F26 %30.18 inNNW (340°)23.0 mphClear
10:50 AM42.8 °F8.6 °F25 %30.18 inNorth (350°)20.7 mphClear
11:20 AM44.6 °F6.8 °F21 %30.18 inNorth (360°)18.4 mph29.9 mphClear
11:50 AM44.6 °F10.4 °F25 %30.18 inNorth (350°)16.1 mphClear
12:20 PM46.4 °F5.0 °F18 %30.18 inNNW (340°)15.0 mphClear
12:50 PM48.2 °F3.2 °F16 %30.15 inNorth (10°)10.4 mphClear
1:20 PM48.2 °F3.2 °F16 %30.15 inNorth (10°)11.5 mphClear
1:50 PM48.2 °F6.8 °F19 %30.15 inNorth (360°)11.5 mphClear
2:00 PM49.0 °F5.0 °F7 %30.20 in6.0 miNorth11.5 mph
2:20 PM50.0 °F5.0 °F16 %30.15 inNorth (350°)11.5 mphClear
2:50 PM50.0 °F6.8 °F17 %30.15 inNorth (360°)12.7 mphClear
3:20 PM50.0 °F6.8 °F17 %30.15 inNorth (360°)12.7 mphClear
3:50 PM50.0 °F8.6 °F19 %30.15 inNNW (340°)12.7 mphClear
4:20 PM50.0 °F10.4 °F20 %30.15 inNorth (350°)13.8 mphClear
4:50 PM48.2 °F12.2 °F24 %30.15 inNNW (330°)10.4 mphClear
5:20 PM48.2 °F14.0 °F25 %30.18 inVariable1.2 mphClear
5:50 PM46.4 °F12.2 °F25 %30.18 inWNW (300°)10.4 mphClear
6:20 PM44.6 °F14.0 °F29 %30.18 inCalmClear
6:50 PM44.6 °F14.0 °F29 %30.18 inWSW (240°)4.6 mphClear
7:20 PM42.8 °F12.2 °F29 %30.18 inNNW (340°)4.6 mphClear
7:50 PM42.8 °F12.2 °F29 %30.18 inNorth (360°)11.5 mphClear
8:00 PM42.0 °F8.0 °F13 %30.24 in6.0 miNorth11.5 mph
8:20 PM41.0 °F12.2 °F31 %30.18 inNorth (10°)9.2 mphClear
8:50 PM37.4 °F17.6 °F45 %30.18 inVariable1.2 mphClear
9:20 PM41.0 °F10.4 °F29 %30.21 inVariable2.3 mphClear
9:50 PM41.0 °F12.2 °F31 %30.21 inVariable2.3 mphClear
10:20 PM39.2 °F10.4 °F31 %30.21 inNorth (350°)4.6 mphClear
10:50 PM37.4 °F12.2 °F36 %30.21 inNNW (330°)5.8 mphClear
11:20 PM33.8 °F17.6 °F52 %30.21 inWNW (300°)6.9 mphClear
11:50 PM32.0 °F19.4 °F60 %30.21 inVariable4.6 mphClear
Hourly data recorded from LTAJ, located miles away from Kilis, Turkey







STORIES FROM OUR PARTNERS